User: anonymous   Login
Location: ????????
(38.4362°N, 22.8767°E)
Time: 05:59:52
(UTC+00:00)
Language:

ATLAS 5 CENTAUR R/B - Orbit

View from above orbital plane
View from above orbital plane
View from above satellite
View from above satellite

Ground track
Ground track

The orbit data is extracted from the following two-line orbital elements,

1 36869U 10039B   24173.94496752  .00019982  00000-0  12307-2 0  9992
2 36869  20.1621  67.3917 4652607 327.6610  10.8577  6.27998038241304
Epoch (UTC): 21 June 2024 22:40:45
Eccentricity: 0.4652607
inclination: 20.1621°
perigee height: 258 km
apogee height: 11805 km
right ascension of ascending node: 67.3917°
argument of perigee: 327.6610°
revolutions per day: 6.27998038
mean anomaly at epoch: 10.8577°
orbit number at epoch: 24130

The dashed part of the orbit path shows where the satellite is in the earth's shadow,  

DLR